Location: Saint Louis
(38.6272°N, 90.1978°W)
Time: 20:45:24
(UTC-05:00)

ISS - Pass Details

Date: 24 July 2013
Orbit: 402 x 404 km, 51.6° (Epoch: 31 May)

Event Time Altitude Azimuth Distance (km) Brightness Sun altitude
Exits shadow 02:42:10 25° 18° (NNE) 933 -0.9 -27.5°
Drops below altitude 10° 02:43:59 10° 38° (NE) 1,559 0.6 -27.3°
Enters shadow 03:41:10 -67° 240° (WSW) 12,192 4.1 -21.4°
